Location: Aalen
(48.8330°N, 10.1000°E)
Time: 04:51:34
(UTC+02:00)

Transit 2A - Pass Details

Date: 02 August 2021
Orbit: 594 x 964 km, 66.7° (Epoch: 27 September)

Event Time Altitude Azimuth Distance (km) Brightness Sun altitude
Rises 11:52:49 0° 314° (NW) 3,041 8.7 53.6°
Reaches altitude 10° 11:57:37 10° 357° (N) 2,235 8.2 54.1°
Maximum altitude 11:58:23 10° 6° (N) 2,232 8.3 54.1°
Drops below altitude 10° 11:59:09 10° 15° (NNE) 2,271 8.3 54.2°
Sets 12:04:20 0° 56° (NE) 3,326 9.3 54.7°
